Time,TemperatureF,DewpointF,PressureIn,WindDirection,WindDirectionDegrees,WindSpeedMPH,WindSpeedGustMPH,Humidity,HourlyPrecipIn,Conditions,Clouds,dailyrainin,SoftwareType,DateUTC
2013-03-06 00:03:00,20.8,17.5,30.31,North,360,14.0,-999.0,87,0.00,,,0.00,Wunderground v.1.15,2013-03-06 06:03:00,
2013-03-06 00:05:00,20.8,17.5,30.31,North,351,16.0,-999.0,87,0.00,,,0.00,Wunderground v.1.15,2013-03-06 06:05:00,
2013-03-06 00:11:00,20.8,18.1,30.31,NNW,341,10.0,-999.0,89,0.00,,,0.00,Wunderground v.1.15,2013-03-06 06:11:00,
2013-03-06 00:17:00,20.6,17.3,30.32,NNW,336,12.0,-999.0,87,0.00,,,0.00,Wunderground v.1.15,2013-03-06 06:17:00,
2013-03-06 00:23:00,20.8,17.5,30.32,NNW,331,11.0,-999.0,87,0.00,,,0.00,Wunderground v.1.15,2013-03-06 06:23:00,
2013-03-06 00:29:00,20.8,17.5,30.33,NNW,327,10.0,-999.0,87,0.00,,,0.00,Wunderground v.1.15,2013-03-06 06:29:00,
2013-03-06 00:35:00,20.6,17.3,30.33,North,350,13.0,-999.0,87,0.00,,,0.00,Wunderground v.1.15,2013-03-06 06:35:00,
2013-03-06 00:40:00,20.6,17.3,30.33,NNW,340,7.0,-999.0,87,0.00,,,0.00,Wunderground v.1.15,2013-03-06 06:40:00,
2013-03-06 00:46:00,20.6,17.3,30.33,NNW,331,12.0,-999.0,87,0.00,,,0.00,Wunderground v.1.15,2013-03-06 06:46:00,
2013-03-06 00:51:00,20.6,17.3,30.33,NW,317,10.0,-999.0,87,0.00,,,0.00,Wunderground v.1.15,2013-03-06 06:51:00,
2013-03-06 00:57:00,20.6,17.3,30.33,NW,323,10.0,-999.0,87,0.00,,,0.00,Wunderground v.1.15,2013-03-06 06:57:00,
2013-03-06 01:03:00,20.5,17.2,30.34,NW,315,7.0,-999.0,87,0.00,,,0.00,Wunderground v.1.15,2013-03-06 07:03:00,
2013-03-06 01:09:00,20.5,17.0,30.34,NNW,347,17.0,-999.0,86,0.00,,,0.00,Wunderground v.1.15,2013-03-06 07:09:00,
2013-03-06 01:15:00,20.5,17.0,30.34,NW,320,10.0,-999.0,86,0.00,,,0.00,Wunderground v.1.15,2013-03-06 07:15:00,
2013-03-06 01:21:00,20.5,17.0,30.34,NNW,347,13.0,-999.0,86,0.00,,,0.00,Wunderground v.1.15,2013-03-06 07:21:00,
2013-03-06 01:27:00,20.3,16.8,30.34,NW,305,10.0,-999.0,86,0.00,,,0.00,Wunderground v.1.15,2013-03-06 07:27:00,
2013-03-06 01:32:00,20.3,17.0,30.35,North,351,9.0,-999.0,87,0.00,,,0.00,Wunderground v.1.15,2013-03-06 07:32:00,
2013-03-06 01:37:00,20.5,17.2,30.35,NNW,344,9.0,-999.0,87,0.00,,,0.00,Wunderground v.1.15,2013-03-06 07:37:00,
2013-03-06 01:43:00,20.5,17.2,30.36,NNW,336,12.0,-999.0,87,0.00,,,0.00,Wunderground v.1.15,2013-03-06 07:43:00,
2013-03-06 01:49:00,20.3,17.0,30.36,NW,324,13.0,-999.0,87,0.00,,,0.00,Wunderground v.1.15,2013-03-06 07:49:00,
2013-03-06 01:54:00,20.3,17.0,30.36,NNW,343,15.0,-999.0,87,0.00,,,0.00,Wunderground v.1.15,2013-03-06 07:54:00,
2013-03-06 01:59:00,20.3,17.0,30.36,NNW,328,6.0,-999.0,87,0.00,,,0.00,Wunderground v.1.15,2013-03-06 07:59:00,
2013-03-06 02:04:00,20.3,17.0,30.36,NW,304,6.0,-999.0,87,0.00,,,0.00,Wunderground v.1.15,2013-03-06 08:04:00,
2013-03-06 02:09:00,20.3,17.0,30.36,NNW,330,11.0,-999.0,87,0.00,,,0.00,Wunderground v.1.15,2013-03-06 08:09:00,
2013-03-06 02:14:00,20.2,17.0,30.36,NNW,328,11.0,-999.0,87,0.00,,,0.00,Wunderground v.1.15,2013-03-06 08:14:00,
2013-03-06 02:19:00,20.2,17.0,30.36,North,349,10.0,-999.0,87,0.00,,,0.00,Wunderground v.1.15,2013-03-06 08:19:00,
2013-03-06 02:24:00,20.2,17.0,30.36,NW,321,12.0,-999.0,87,0.00,,,0.00,Wunderground v.1.15,2013-03-06 08:24:00,
2013-03-06 02:29:00,20.2,17.0,30.36,NNW,331,10.0,-999.0,87,0.00,,,0.00,Wunderground v.1.15,2013-03-06 08:29:00,
2013-03-06 02:34:00,20.2,17.0,30.36,NW,318,12.0,-999.0,87,0.00,,,0.00,Wunderground v.1.15,2013-03-06 08:34:00,
2013-03-06 02:39:00,20.2,17.0,30.36,NW,319,10.0,-999.0,87,0.00,,,0.00,Wunderground v.1.15,2013-03-06 08:39:00,
2013-03-06 02:44:00,20.2,17.0,30.36,NW,324,10.0,-999.0,87,0.00,,,0.00,Wunderground v.1.15,2013-03-06 08:44:00,
2013-03-06 02:49:00,20.2,17.0,30.36,NW,317,12.0,-999.0,87,0.00,,,0.00,Wunderground v.1.15,2013-03-06 08:49:00,
2013-03-06 02:54:00,20.2,17.0,30.36,NNW,348,11.0,-999.0,87,0.00,,,0.00,Wunderground v.1.15,2013-03-06 08:54:00,
2013-03-06 02:59:00,20.0,16.8,30.36,NNW,348,12.0,-999.0,87,0.00,,,0.00,Wunderground v.1.15,2013-03-06 08:59:00,
2013-03-06 03:04:00,20.0,16.8,30.36,NW,305,7.0,-999.0,87,0.00,,,0.00,Wunderground v.1.15,2013-03-06 09:04:00,
2013-03-06 03:09:00,20.0,16.8,30.36,NNW,327,11.0,-999.0,87,0.00,,,0.00,Wunderground v.1.15,2013-03-06 09:09:00,
2013-03-06 03:14:00,20.0,16.8,30.36,NW,322,11.0,-999.0,87,0.00,,,0.00,Wunderground v.1.15,2013-03-06 09:14:00,
2013-03-06 03:19:00,20.0,16.8,30.36,North,351,12.0,-999.0,87,0.00,,,0.00,Wunderground v.1.15,2013-03-06 09:19:00,
2013-03-06 03:24:00,20.0,17.0,30.36,NNW,332,14.0,-999.0,88,0.00,,,0.00,Wunderground v.1.15,2013-03-06 09:24:00,
2013-03-06 03:29:00,19.9,16.9,30.36,NNW,327,5.0,-999.0,88,0.00,,,0.00,Wunderground v.1.15,2013-03-06 09:29:00,
2013-03-06 03:34:00,19.9,16.9,30.36,NW,318,11.0,-999.0,88,0.00,,,0.00,Wunderground v.1.15,2013-03-06 09:34:00,
2013-03-06 03:39:00,19.9,16.9,30.36,NNW,347,10.0,-999.0,88,0.00,,,0.00,Wunderground v.1.15,2013-03-06 09:39:00,
2013-03-06 03:44:00,19.9,16.9,30.36,NNW,329,15.0,-999.0,88,0.00,,,0.00,Wunderground v.1.15,2013-03-06 09:44:00,
2013-03-06 03:49:00,19.7,16.7,30.36,NW,323,10.0,-999.0,88,0.00,,,0.00,Wunderground v.1.15,2013-03-06 09:49:00,
2013-03-06 03:54:00,19.7,16.7,30.36,NNW,330,9.0,-999.0,88,0.00,,,0.00,Wunderground v.1.15,2013-03-06 09:54:00,
2013-03-06 03:59:00,19.7,16.7,30.36,NW,319,12.0,-999.0,88,0.00,,,0.00,Wunderground v.1.15,2013-03-06 09:59:00,
2013-03-06 04:04:00,19.7,16.7,30.36,NW,313,10.0,-999.0,88,0.00,,,0.00,Wunderground v.1.15,2013-03-06 10:04:00,
2013-03-06 04:09:00,19.7,16.7,30.36,NNW,328,16.0,-999.0,88,0.00,,,0.00,Wunderground v.1.15,2013-03-06 10:09:00,
2013-03-06 04:14:00,19.5,16.5,30.36,North,351,13.0,-999.0,88,0.00,,,0.00,Wunderground v.1.15,2013-03-06 10:14:00,
2013-03-06 04:19:00,19.7,16.7,30.36,NNW,348,11.0,-999.0,88,0.00,,,0.00,Wunderground v.1.15,2013-03-06 10:19:00,
2013-03-06 04:24:00,19.7,17.2,30.36,NNW,329,10.0,-999.0,90,0.00,,,0.00,Wunderground v.1.15,2013-03-06 10:24:00,
2013-03-06 04:29:00,19.7,16.7,30.36,NNW,338,12.0,-999.0,88,0.00,,,0.00,Wunderground v.1.15,2013-03-06 10:29:00,
2013-03-06 04:34:00,19.7,16.7,30.36,North,350,10.0,-999.0,88,0.00,,,0.00,Wunderground v.1.15,2013-03-06 10:34:00,
2013-03-06 04:39:00,19.7,16.7,30.36,NNW,338,9.0,-999.0,88,0.00,,,0.00,Wunderground v.1.15,2013-03-06 10:39:00,
2013-03-06 04:44:00,19.7,16.7,30.36,NNW,328,12.0,-999.0,88,0.00,,,0.00,Wunderground v.1.15,2013-03-06 10:44:00,
2013-03-06 04:49:00,19.7,16.7,30.36,NW,317,9.0,-999.0,88,0.00,,,0.00,Wunderground v.1.15,2013-03-06 10:49:00,
2013-03-06 04:54:00,19.7,17.0,30.36,NW,319,9.0,-999.0,89,0.00,,,0.00,Wunderground v.1.15,2013-03-06 10:54:00,
2013-03-06 04:59:00,19.5,16.5,30.37,NNW,327,9.0,-999.0,88,0.00,,,0.00,Wunderground v.1.15,2013-03-06 10:59:00,
2013-03-06 05:04:00,19.5,16.5,30.37,NW,308,8.0,-999.0,88,0.00,,,0.00,Wunderground v.1.15,2013-03-06 11:04:00,
2013-03-06 05:10:00,19.5,16.5,30.37,NNW,329,6.0,-999.0,88,0.00,,,0.00,Wunderground v.1.15,2013-03-06 11:10:00,
2013-03-06 05:15:00,19.5,16.5,30.38,NNW,329,7.0,-999.0,88,0.00,,,0.00,Wunderground v.1.15,2013-03-06 11:15:00,
2013-03-06 05:20:00,19.5,16.8,30.38,NNW,342,5.0,-999.0,89,0.00,,,0.00,Wunderground v.1.15,2013-03-06 11:20:00,
2013-03-06 05:25:00,19.5,16.5,30.38,NW,313,8.0,-999.0,88,0.00,,,0.00,Wunderground v.1.15,2013-03-06 11:25:00,
2013-03-06 05:30:00,19.5,16.8,30.38,NNW,335,6.0,-999.0,89,0.00,,,0.00,Wunderground v.1.15,2013-03-06 11:30:00,
2013-03-06 05:35:00,19.5,16.5,30.38,NW,322,6.0,-999.0,88,0.00,,,0.00,Wunderground v.1.15,2013-03-06 11:35:00,
2013-03-06 05:40:00,19.5,16.5,30.38,NNW,344,6.0,-999.0,88,0.00,,,0.00,Wunderground v.1.15,2013-03-06 11:40:00,
2013-03-06 05:45:00,19.4,16.7,30.39,North,351,9.0,-999.0,89,0.00,,,0.00,Wunderground v.1.15,2013-03-06 11:45:00,
2013-03-06 05:50:00,19.4,16.7,30.39,NNW,336,9.0,-999.0,89,0.00,,,0.00,Wunderground v.1.15,2013-03-06 11:50:00,
2013-03-06 05:55:00,19.2,16.2,30.39,NNW,327,10.0,-999.0,88,0.00,,,0.00,Wunderground v.1.15,2013-03-06 11:55:00,
2013-03-06 06:00:00,19.1,16.4,30.39,NNW,336,11.0,-999.0,89,0.00,,,0.00,Wunderground v.1.15,2013-03-06 12:00:00,
2013-03-06 06:05:00,19.1,16.4,30.39,North,360,9.0,-999.0,89,0.00,,,0.00,Wunderground v.1.15,2013-03-06 12:05:00,
2013-03-06 06:10:00,19.1,16.4,30.39,North,349,6.0,-999.0,89,0.00,,,0.00,Wunderground v.1.15,2013-03-06 12:10:00,
2013-03-06 06:15:00,19.1,16.4,30.40,NW,317,10.0,-999.0,89,0.00,,,0.00,Wunderground v.1.15,2013-03-06 12:15:00,
2013-03-06 06:20:00,19.1,16.4,30.40,NW,321,7.0,-999.0,89,0.00,,,0.00,Wunderground v.1.15,2013-03-06 12:20:00,
2013-03-06 06:25:00,18.9,16.2,30.40,NNW,348,9.0,-999.0,89,0.00,,,0.00,Wunderground v.1.15,2013-03-06 12:25:00,
2013-03-06 06:30:00,18.8,16.1,30.40,NW,315,5.0,-999.0,89,0.00,,,0.00,Wunderground v.1.15,2013-03-06 12:30:00,
2013-03-06 06:35:00,18.6,15.9,30.40,NNW,331,5.0,-999.0,89,0.00,,,0.00,Wunderground v.1.15,2013-03-06 12:35:00,
2013-03-06 06:40:00,18.6,15.9,30.40,NNW,333,5.0,-999.0,89,0.00,,,0.00,Wunderground v.1.15,2013-03-06 12:40:00,
2013-03-06 06:45:00,18.4,15.7,30.40,NNW,338,4.0,-999.0,89,0.00,,,0.00,Wunderground v.1.15,2013-03-06 12:45:00,
2013-03-06 06:50:00,18.6,15.9,30.40,North,360,9.0,-999.0,89,0.00,,,0.00,Wunderground v.1.15,2013-03-06 12:50:00,
2013-03-06 06:55:00,18.6,15.9,30.40,North,349,4.0,-999.0,89,0.00,,,0.00,Wunderground v.1.15,2013-03-06 12:55:00,
2013-03-06 07:00:00,18.4,15.7,30.39,North,360,9.0,-999.0,89,0.00,,,0.00,Wunderground v.1.15,2013-03-06 13:00:00,
2013-03-06 07:05:00,18.4,15.7,30.39,North,351,9.0,-999.0,89,0.00,,,0.00,Wunderground v.1.15,2013-03-06 13:05:00,
2013-03-06 07:10:00,18.3,15.6,30.39,North,360,6.0,-999.0,89,0.00,,,0.00,Wunderground v.1.15,2013-03-06 13:10:00,
2013-03-06 07:15:00,18.3,15.6,30.40,North,360,12.0,-999.0,89,0.00,,,0.00,Wunderground v.1.15,2013-03-06 13:15:00,
2013-03-06 07:20:00,18.0,15.3,30.40,NNE,16,6.0,-999.0,89,0.00,,,0.00,Wunderground v.1.15,2013-03-06 13:20:00,
2013-03-06 07:25:00,18.1,15.4,30.40,NNW,333,5.0,-999.0,89,0.00,,,0.00,Wunderground v.1.15,2013-03-06 13:25:00,
2013-03-06 07:30:00,18.1,15.4,30.40,North,360,10.0,-999.0,89,0.00,,,0.00,Wunderground v.1.15,2013-03-06 13:30:00,
2013-03-06 07:35:00,18.1,15.4,30.40,NNW,333,5.0,-999.0,89,0.00,,,0.00,Wunderground v.1.15,2013-03-06 13:35:00,
2013-03-06 07:40:00,18.3,15.9,30.40,NNW,327,4.0,-999.0,90,0.00,,,0.00,Wunderground v.1.15,2013-03-06 13:40:00,
2013-03-06 07:45:00,18.3,15.9,30.40,NNW,348,5.0,-999.0,90,0.00,,,0.00,Wunderground v.1.15,2013-03-06 13:45:00,
2013-03-06 07:50:00,18.4,16.0,30.40,NNW,348,6.0,-999.0,90,0.00,,,0.00,Wunderground v.1.15,2013-03-06 13:50:00,
2013-03-06 07:55:00,18.4,16.0,30.40,North,11,5.0,-999.0,90,0.00,,,0.00,Wunderground v.1.15,2013-03-06 13:55:00,
2013-03-06 08:01:00,18.4,16.0,30.40,North,351,5.0,-999.0,90,0.00,,,0.00,Wunderground v.1.15,2013-03-06 14:01:00,
2013-03-06 08:06:00,18.3,15.6,30.40,North,360,7.0,-999.0,89,0.00,,,0.00,Wunderground v.1.15,2013-03-06 14:06:00,
2013-03-06 08:11:00,18.3,15.9,30.40,NNW,340,8.0,-999.0,90,0.00,,,0.00,Wunderground v.1.15,2013-03-06 14:11:00,
2013-03-06 08:16:00,18.1,15.4,30.41,North,360,6.0,-999.0,89,0.00,,,0.00,Wunderground v.1.15,2013-03-06 14:16:00,
2013-03-06 08:21:00,18.1,15.7,30.41,NNE,12,5.0,-999.0,90,0.00,,,0.00,Wunderground v.1.15,2013-03-06 14:21:00,
2013-03-06 08:26:00,18.3,15.6,30.41,North,360,6.0,-999.0,89,0.00,,,0.00,Wunderground v.1.15,2013-03-06 14:26:00,
2013-03-06 08:31:00,18.4,16.0,30.42,North,5,10.0,-999.0,90,0.00,,,0.00,Wunderground v.1.15,2013-03-06 14:31:00,
2013-03-06 08:36:00,18.6,15.9,30.42,NNW,345,9.0,-999.0,89,0.00,,,0.00,Wunderground v.1.15,2013-03-06 14:36:00,
2013-03-06 08:41:00,18.4,15.7,30.42,North,351,4.0,-999.0,89,0.00,,,0.00,Wunderground v.1.15,2013-03-06 14:41:00,
2013-03-06 08:46:00,18.4,15.7,30.42,NNW,335,7.0,-999.0,89,0.00,,,0.00,Wunderground v.1.15,2013-03-06 14:46:00,
2013-03-06 08:51:00,18.4,15.7,30.42,NW,315,5.0,-999.0,89,0.00,,,0.00,Wunderground v.1.15,2013-03-06 14:51:00,
2013-03-06 08:56:00,18.4,15.7,30.42,North,351,3.0,-999.0,89,0.00,,,0.00,Wunderground v.1.15,2013-03-06 14:56:00,
2013-03-06 09:01:00,18.6,15.9,30.42,North,360,7.0,-999.0,89,0.00,,,0.00,Wunderground v.1.15,2013-03-06 15:01:00,
2013-03-06 09:06:00,18.4,15.4,30.42,NNW,335,6.0,-999.0,88,0.00,,,0.00,Wunderground v.1.15,2013-03-06 15:06:00,
2013-03-06 09:11:00,18.3,15.6,30.42,North,360,5.0,-999.0,89,0.00,,,0.00,Wunderground v.1.15,2013-03-06 15:11:00,
2013-03-06 09:16:00,18.3,15.6,30.42,NNW,346,7.0,-999.0,89,0.00,,,0.00,Wunderground v.1.15,2013-03-06 15:16:00,
2013-03-06 09:21:00,18.4,15.7,30.42,North,350,8.0,-999.0,89,0.00,,,0.00,Wunderground v.1.15,2013-03-06 15:21:00,
2013-03-06 09:26:00,18.6,15.9,30.42,NNE,17,2.0,-999.0,89,0.00,,,0.00,Wunderground v.1.15,2013-03-06 15:26:00,
2013-03-06 09:31:00,18.6,15.6,30.42,NNE,14,5.0,-999.0,88,0.00,,,0.00,Wunderground v.1.15,2013-03-06 15:31:00,
2013-03-06 09:36:00,18.9,16.2,30.42,North,351,5.0,-999.0,89,0.00,,,0.00,Wunderground v.1.15,2013-03-06 15:36:00,
2013-03-06 09:41:00,19.1,16.1,30.42,NNE,26,8.0,-999.0,88,0.00,,,0.00,Wunderground v.1.15,2013-03-06 15:41:00,
2013-03-06 09:47:00,19.1,16.1,30.42,NNW,345,7.0,-999.0,88,0.00,,,0.00,Wunderground v.1.15,2013-03-06 15:47:00,
2013-03-06 09:52:00,19.2,16.2,30.42,NE,40,6.0,-999.0,88,0.00,,,0.00,Wunderground v.1.15,2013-03-06 15:52:00,
2013-03-06 09:57:00,18.9,15.7,30.42,North,360,5.0,-999.0,87,0.00,,,0.00,Wunderground v.1.15,2013-03-06 15:57:00,
2013-03-06 10:02:00,19.2,16.0,30.42,North,11,2.0,-999.0,87,0.00,,,0.00,Wunderground v.1.15,2013-03-06 16:02:00,
2013-03-06 10:07:00,19.4,16.2,30.42,NNW,328,5.0,-999.0,87,0.00,,,0.00,Wunderground v.1.15,2013-03-06 16:07:00,
2013-03-06 10:12:00,19.2,15.7,30.42,North,360,5.0,-999.0,86,0.00,,,0.00,Wunderground v.1.15,2013-03-06 16:12:00,
2013-03-06 10:17:00,19.5,16.0,30.42,North,350,6.0,-999.0,86,0.00,,,0.00,Wunderground v.1.15,2013-03-06 16:17:00,
2013-03-06 10:22:00,19.5,16.0,30.42,NNW,348,8.0,-999.0,86,0.00,,,0.00,Wunderground v.1.15,2013-03-06 16:22:00,
2013-03-06 10:27:00,19.2,15.4,30.42,NNE,13,11.0,-999.0,85,0.00,,,0.00,Wunderground v.1.15,2013-03-06 16:27:00,
2013-03-06 10:32:00,19.1,15.6,30.42,NNW,338,6.0,-999.0,86,0.00,,,0.00,Wunderground v.1.15,2013-03-06 16:32:00,
2013-03-06 10:37:00,19.4,15.6,30.42,North,360,5.0,-999.0,85,0.00,,,0.00,Wunderground v.1.15,2013-03-06 16:37:00,
2013-03-06 10:42:00,19.5,15.7,30.42,North,360,2.0,-999.0,85,0.00,,,0.00,Wunderground v.1.15,2013-03-06 16:42:00,
2013-03-06 10:47:00,19.7,15.9,30.41,NNW,345,7.0,-999.0,85,0.00,,,0.00,Wunderground v.1.15,2013-03-06 16:47:00,
2013-03-06 10:52:00,20.0,16.2,30.41,North,360,3.0,-999.0,85,0.00,,,0.00,Wunderground v.1.15,2013-03-06 16:52:00,
2013-03-06 10:57:00,20.2,16.4,30.41,North,9,5.0,-999.0,85,0.00,,,0.00,Wunderground v.1.15,2013-03-06 16:57:00,
2013-03-06 11:02:00,20.0,15.9,30.41,NNE,19,5.0,-999.0,84,0.00,,,0.00,Wunderground v.1.15,2013-03-06 17:02:00,
2013-03-06 11:07:00,19.7,15.6,30.41,NNE,21,3.0,-999.0,84,0.00,,,0.00,Wunderground v.1.15,2013-03-06 17:07:00,
2013-03-06 11:12:00,19.9,15.8,30.41,NNE,22,1.0,-999.0,84,0.00,,,0.00,Wunderground v.1.15,2013-03-06 17:12:00,
2013-03-06 11:17:00,20.2,16.1,30.41,NNE,30,4.0,-999.0,84,0.00,,,0.00,Wunderground v.1.15,2013-03-06 17:17:00,
2013-03-06 11:22:00,20.2,15.9,30.41,North,360,1.0,-999.0,83,0.00,,,0.00,Wunderground v.1.15,2013-03-06 17:22:00,
2013-03-06 11:27:00,20.2,15.9,30.41,North,360,1.0,-999.0,83,0.00,,,0.00,Wunderground v.1.15,2013-03-06 17:27:00,
2013-03-06 11:32:00,20.6,16.5,30.41,NNE,22,1.0,-999.0,84,0.00,,,0.00,Wunderground v.1.15,2013-03-06 17:32:00,
2013-03-06 11:37:00,20.8,16.7,30.41,NNE,13,0.0,-999.0,84,0.00,,,0.00,Wunderground v.1.15,2013-03-06 17:37:00,
2013-03-06 11:42:00,21.0,16.4,30.41,NNE,22,5.0,-999.0,82,0.00,,,0.00,Wunderground v.1.15,2013-03-06 17:42:00,
2013-03-06 11:47:00,20.8,16.5,30.40,North,9,4.0,-999.0,83,0.00,,,0.00,Wunderground v.1.15,2013-03-06 17:47:00,
2013-03-06 11:52:00,21.0,16.6,30.40,North,9,0.0,-999.0,83,0.00,,,0.00,Wunderground v.1.15,2013-03-06 17:52:00,
2013-03-06 11:58:00,21.3,16.7,30.40,NW,317,1.0,-999.0,82,0.00,,,0.00,Wunderground v.1.15,2013-03-06 17:58:00,
2013-03-06 12:03:00,21.1,16.5,30.40,NNE,20,3.0,-999.0,82,0.00,,,0.00,Wunderground v.1.15,2013-03-06 18:03:00,
2013-03-06 12:08:00,21.3,16.7,30.40,North,9,2.0,-999.0,82,0.00,,,0.00,Wunderground v.1.15,2013-03-06 18:08:00,
2013-03-06 12:13:00,21.3,16.4,30.40,NNE,27,0.0,-999.0,81,0.00,,,0.00,Wunderground v.1.15,2013-03-06 18:13:00,
2013-03-06 12:18:00,21.4,16.8,30.40,NNE,14,3.0,-999.0,82,0.00,,,0.00,Wunderground v.1.15,2013-03-06 18:18:00,
2013-03-06 12:23:00,21.3,16.7,30.40,NNE,15,0.0,-999.0,82,0.00,,,0.00,Wunderground v.1.15,2013-03-06 18:23:00,
2013-03-06 12:28:00,21.6,17.0,30.39,NNE,16,4.0,-999.0,82,0.00,,,0.00,Wunderground v.1.15,2013-03-06 18:28:00,
2013-03-06 12:33:00,21.6,16.7,30.39,NNE,16,2.0,-999.0,81,0.00,,,0.00,Wunderground v.1.15,2013-03-06 18:33:00,
2013-03-06 12:38:00,21.6,16.7,30.39,NW,315,4.0,-999.0,81,0.00,,,0.00,Wunderground v.1.15,2013-03-06 18:38:00,
2013-03-06 12:43:00,21.4,16.5,30.38,NNW,329,4.0,-999.0,81,0.00,,,0.00,Wunderground v.1.15,2013-03-06 18:43:00,
2013-03-06 12:48:00,21.6,16.7,30.38,NNW,331,4.0,-999.0,81,0.00,,,0.00,Wunderground v.1.15,2013-03-06 18:48:00,
2013-03-06 12:53:00,21.9,17.0,30.38,NW,325,3.0,-999.0,81,0.00,,,0.00,Wunderground v.1.15,2013-03-06 18:53:00,
2013-03-06 12:58:00,21.9,17.0,30.38,WSW,254,1.0,-999.0,81,0.00,,,0.00,Wunderground v.1.15,2013-03-06 18:58:00,
2013-03-06 13:03:00,22.1,16.9,30.38,West,271,2.0,-999.0,80,0.00,,,0.00,Wunderground v.1.15,2013-03-06 19:03:00,
2013-03-06 13:08:00,22.2,17.3,30.38,West,271,0.0,-999.0,81,0.00,,,0.00,Wunderground v.1.15,2013-03-06 19:08:00,
2013-03-06 13:13:00,22.4,17.2,30.38,West,266,5.0,-999.0,80,0.00,,,0.00,Wunderground v.1.15,2013-03-06 19:13:00,
2013-03-06 13:18:00,22.2,17.0,30.38,West,266,2.0,-999.0,80,0.00,,,0.00,Wunderground v.1.15,2013-03-06 19:18:00,
2013-03-06 13:23:00,22.5,17.3,30.38,West,266,0.0,-999.0,80,0.00,,,0.00,Wunderground v.1.15,2013-03-06 19:23:00,
2013-03-06 13:28:00,22.5,17.0,30.37,NNE,14,0.0,-999.0,79,0.00,,,0.00,Wunderground v.1.15,2013-03-06 19:28:00,
2013-03-06 13:33:00,22.7,17.2,30.37,WNW,286,0.0,-999.0,79,0.00,,,0.00,Wunderground v.1.15,2013-03-06 19:33:00,
2013-03-06 13:38:00,23.2,17.9,30.37,WNW,286,0.0,-999.0,80,0.00,,,0.00,Wunderground v.1.15,2013-03-06 19:38:00,
2013-03-06 13:43:00,23.5,17.9,30.36,WNW,288,1.0,-999.0,79,0.00,,,0.00,Wunderground v.1.15,2013-03-06 19:43:00,
2013-03-06 13:48:00,23.2,17.4,30.36,NNW,339,3.0,-999.0,78,0.00,,,0.00,Wunderground v.1.15,2013-03-06 19:48:00,
2013-03-06 13:53:00,23.0,17.2,30.36,North,351,4.0,-999.0,78,0.00,,,0.00,Wunderground v.1.15,2013-03-06 19:53:00,
2013-03-06 13:58:00,23.0,17.2,30.36,North,351,2.0,-999.0,78,0.00,,,0.00,Wunderground v.1.15,2013-03-06 19:58:00,
2013-03-06 14:04:00,23.2,17.4,30.36,North,351,2.0,-999.0,78,0.00,,,0.00,Wunderground v.1.15,2013-03-06 20:04:00,
2013-03-06 14:09:00,23.2,17.4,30.36,North,351,4.0,-999.0,78,0.00,,,0.00,Wunderground v.1.15,2013-03-06 20:09:00,
2013-03-06 14:14:00,23.0,17.2,30.35,North,351,3.0,-999.0,78,0.00,,,0.00,Wunderground v.1.15,2013-03-06 20:14:00,
2013-03-06 14:19:00,23.2,17.4,30.35,NNW,340,0.0,-999.0,78,0.00,,,0.00,Wunderground v.1.15,2013-03-06 20:19:00,
2013-03-06 14:24:00,23.5,17.6,30.35,NNW,340,0.0,-999.0,78,0.00,,,0.00,Wunderground v.1.15,2013-03-06 20:24:00,
2013-03-06 14:29:00,23.6,17.4,30.35,NNW,340,0.0,-999.0,77,0.00,,,0.00,Wunderground v.1.15,2013-03-06 20:29:00,
2013-03-06 14:34:00,23.9,17.7,30.35,NNW,340,0.0,-999.0,77,0.00,,,0.00,Wunderground v.1.15,2013-03-06 20:34:00,
2013-03-06 14:39:00,24.1,17.6,30.35,NNW,340,3.0,-999.0,76,0.00,,,0.00,Wunderground v.1.15,2013-03-06 20:39:00,
2013-03-06 14:44:00,24.1,17.6,30.35,NNW,340,2.0,-999.0,76,0.00,,,0.00,Wunderground v.1.15,2013-03-06 20:44:00,
2013-03-06 14:49:00,24.1,17.6,30.35,NNW,340,1.0,-999.0,76,0.00,,,0.00,Wunderground v.1.15,2013-03-06 20:49:00,
2013-03-06 14:54:00,24.2,17.7,30.35,NNW,340,0.0,-999.0,76,0.00,,,0.00,Wunderground v.1.15,2013-03-06 20:54:00,
2013-03-06 14:59:00,24.2,17.4,30.34,NE,42,0.0,-999.0,75,0.00,,,0.01,Wunderground v.1.15,2013-03-06 20:59:00,
2013-03-06 15:04:00,24.5,18.0,30.34,NE,40,0.0,-999.0,76,0.00,,,0.01,Wunderground v.1.15,2013-03-06 21:04:00,
2013-03-06 15:09:00,24.5,17.7,30.34,NE,41,0.0,-999.0,75,0.00,,,0.01,Wunderground v.1.15,2013-03-06 21:09:00,
2013-03-06 15:14:00,24.4,17.6,30.34,NE,37,0.0,-999.0,75,0.00,,,0.01,Wunderground v.1.15,2013-03-06 21:14:00,
2013-03-06 15:19:00,23.9,17.1,30.34,NE,37,1.0,-999.0,75,0.00,,,0.01,Wunderground v.1.15,2013-03-06 21:19:00,
2013-03-06 15:24:00,23.9,17.4,30.34,NE,37,0.0,-999.0,76,0.00,,,0.01,Wunderground v.1.15,2013-03-06 21:24:00,
2013-03-06 15:29:00,24.4,18.2,30.34,NE,37,0.0,-999.0,77,0.00,,,0.01,Wunderground v.1.15,2013-03-06 21:29:00,
2013-03-06 15:34:00,24.8,18.3,30.34,NE,36,2.0,-999.0,76,0.00,,,0.01,Wunderground v.1.15,2013-03-06 21:34:00,
2013-03-06 15:39:00,24.7,17.9,30.34,North,351,3.0,-999.0,75,0.00,,,0.01,Wunderground v.1.15,2013-03-06 21:39:00,
2013-03-06 15:44:00,25.0,18.2,30.34,North,351,1.0,-999.0,75,0.00,,,0.01,Wunderground v.1.15,2013-03-06 21:44:00,
2013-03-06 15:49:00,24.7,17.9,30.34,North,350,0.0,-999.0,75,0.00,,,0.02,Wunderground v.1.15,2013-03-06 21:49:00,
2013-03-06 15:54:00,24.8,18.0,30.34,North,350,2.0,-999.0,75,0.00,,,0.02,Wunderground v.1.15,2013-03-06 21:54:00,
2013-03-06 15:59:00,24.8,18.0,30.34,North,350,1.0,-999.0,75,0.00,,,0.02,Wunderground v.1.15,2013-03-06 21:59:00,
2013-03-06 16:04:00,24.8,18.0,30.34,North,350,0.0,-999.0,75,0.00,,,0.02,Wunderground v.1.15,2013-03-06 22:04:00,
2013-03-06 16:09:00,24.8,17.7,30.34,North,350,0.0,-999.0,74,0.00,,,0.02,Wunderground v.1.15,2013-03-06 22:09:00,
2013-03-06 16:14:00,24.7,17.6,30.34,North,350,0.0,-999.0,74,0.00,,,0.02,Wunderground v.1.15,2013-03-06 22:14:00,
2013-03-06 16:19:00,24.8,18.0,30.34,North,350,0.0,-999.0,75,0.00,,,0.02,Wunderground v.1.15,2013-03-06 22:19:00,
2013-03-06 16:24:00,25.1,18.0,30.34,North,350,0.0,-999.0,74,0.00,,,0.02,Wunderground v.1.15,2013-03-06 22:24:00,
2013-03-06 16:29:00,24.8,17.7,30.33,North,360,1.0,-999.0,74,0.00,,,0.02,Wunderground v.1.15,2013-03-06 22:29:00,
2013-03-06 16:34:00,24.4,17.6,30.33,North,360,0.0,-999.0,75,0.00,,,0.02,Wunderground v.1.15,2013-03-06 22:34:00,
2013-03-06 16:39:00,24.2,17.4,30.33,North,360,0.0,-999.0,75,0.00,,,0.02,Wunderground v.1.15,2013-03-06 22:39:00,
2013-03-06 16:44:00,24.2,17.7,30.33,North,360,1.0,-999.0,76,0.00,,,0.02,Wunderground v.1.15,2013-03-06 22:44:00,
2013-03-06 16:49:00,24.2,17.7,30.33,NNE,24,0.0,-999.0,76,0.00,,,0.02,Wunderground v.1.15,2013-03-06 22:49:00,
2013-03-06 16:54:00,24.1,17.6,30.33,East,96,4.0,-999.0,76,0.00,,,0.02,Wunderground v.1.15,2013-03-06 22:54:00,
2013-03-06 16:59:00,23.8,17.6,30.33,ENE,73,3.0,-999.0,77,0.00,,,0.02,Wunderground v.1.15,2013-03-06 22:59:00,
2013-03-06 17:04:00,23.8,17.6,30.33,ESE,102,3.0,-999.0,77,0.00,,,0.02,Wunderground v.1.15,2013-03-06 23:04:00,
2013-03-06 17:09:00,23.8,17.9,30.33,ENE,61,1.0,-999.0,78,0.00,,,0.02,Wunderground v.1.15,2013-03-06 23:09:00,
2013-03-06 17:15:00,23.9,18.0,30.33,ENE,61,1.0,-999.0,78,0.00,,,0.02,Wunderground v.1.15,2013-03-06 23:15:00,
2013-03-06 17:20:00,23.9,18.0,30.33,ENE,61,2.0,-999.0,78,0.00,,,0.02,Wunderground v.1.15,2013-03-06 23:20:00,
2013-03-06 17:25:00,23.9,18.0,30.33,SE,131,1.0,-999.0,78,0.00,,,0.02,Wunderground v.1.15,2013-03-06 23:25:00,
2013-03-06 17:30:00,23.9,18.0,30.32,SE,131,0.0,-999.0,78,0.00,,,0.02,Wunderground v.1.15,2013-03-06 23:30:00,
2013-03-06 17:35:00,23.8,17.9,30.32,ESE,116,2.0,-999.0,78,0.00,,,0.02,Wunderground v.1.15,2013-03-06 23:35:00,
2013-03-06 17:40:00,23.6,17.7,30.32,East,92,0.0,-999.0,78,0.00,,,0.02,Wunderground v.1.15,2013-03-06 23:40:00,
2013-03-06 17:45:00,23.5,17.6,30.32,ESE,112,0.0,-999.0,78,0.00,,,0.02,Wunderground v.1.15,2013-03-06 23:45:00,
2013-03-06 17:50:00,23.5,17.6,30.32,ESE,111,2.0,-999.0,78,0.00,,,0.02,Wunderground v.1.15,2013-03-06 23:50:00,
2013-03-06 17:55:00,23.5,17.9,30.32,SSE,160,3.0,-999.0,79,0.00,,,0.02,Wunderground v.1.15,2013-03-06 23:55:00,
2013-03-06 18:00:00,23.3,17.7,30.32,ESE,109,3.0,-999.0,79,0.00,,,0.02,Wunderground v.1.15,2013-03-07 00:00:00,
2013-03-06 18:05:00,23.2,17.7,30.32,SE,134,3.0,-999.0,79,0.00,,,0.02,Wunderground v.1.15,2013-03-07 00:05:00,
2013-03-06 18:10:00,23.0,17.5,30.32,SE,132,1.0,-999.0,79,0.00,,,0.02,Wunderground v.1.15,2013-03-07 00:10:00,
2013-03-06 18:15:00,23.0,17.5,30.31,SSE,168,5.0,-999.0,79,0.00,,,0.02,Wunderground v.1.15,2013-03-07 00:15:00,
2013-03-06 18:20:00,22.9,17.4,30.31,SE,128,2.0,-999.0,79,0.00,,,0.02,Wunderground v.1.15,2013-03-07 00:20:00,
2013-03-06 18:25:00,22.7,17.2,30.31,East,92,1.0,-999.0,79,0.00,,,0.02,Wunderground v.1.15,2013-03-07 00:25:00,
2013-03-06 18:30:00,22.5,17.3,30.32,ESE,111,1.0,-999.0,80,0.00,,,0.02,Wunderground v.1.15,2013-03-07 00:30:00,
2013-03-06 18:35:00,22.2,17.0,30.32,ESE,106,2.0,-999.0,80,0.00,,,0.02,Wunderground v.1.15,2013-03-07 00:35:00,
2013-03-06 18:40:00,22.1,16.9,30.32,East,97,2.0,-999.0,80,0.00,,,0.02,Wunderground v.1.15,2013-03-07 00:40:00,
2013-03-06 18:45:00,22.1,16.9,30.32,ESE,109,2.0,-999.0,80,0.00,,,0.02,Wunderground v.1.15,2013-03-07 00:45:00,
2013-03-06 18:50:00,22.1,16.9,30.32,ESE,106,1.0,-999.0,80,0.00,,,0.02,Wunderground v.1.15,2013-03-07 00:50:00,
2013-03-06 18:55:00,21.9,16.7,30.32,SSE,158,0.0,-999.0,80,0.00,,,0.02,Wunderground v.1.15,2013-03-07 00:55:00,
2013-03-06 19:00:00,21.8,16.6,30.32,SSE,164,0.0,-999.0,80,0.00,,,0.02,Wunderground v.1.15,2013-03-07 01:00:00,
2013-03-06 19:05:00,21.8,16.9,30.32,SSE,164,0.0,-999.0,81,0.00,,,0.02,Wunderground v.1.15,2013-03-07 01:05:00,
2013-03-06 19:10:00,21.8,16.9,30.32,SSE,164,2.0,-999.0,81,0.00,,,0.02,Wunderground v.1.15,2013-03-07 01:10:00,
2013-03-06 19:15:00,21.9,17.0,30.31,ESE,114,2.0,-999.0,81,0.00,,,0.02,Wunderground v.1.15,2013-03-07 01:15:00,
2013-03-06 19:20:00,21.8,16.9,30.31,SSE,158,2.0,-999.0,81,0.00,,,0.02,Wunderground v.1.15,2013-03-07 01:20:00,
2013-03-06 19:25:00,21.8,16.9,30.31,South,169,0.0,-999.0,81,0.00,,,0.02,Wunderground v.1.15,2013-03-07 01:25:00,
2013-03-06 19:30:00,21.8,16.9,30.31,SE,133,2.0,-999.0,81,0.00,,,0.02,Wunderground v.1.15,2013-03-07 01:30:00,
2013-03-06 19:35:00,21.8,16.9,30.31,East,101,3.0,-999.0,81,0.00,,,0.02,Wunderground v.1.15,2013-03-07 01:35:00,
2013-03-06 19:40:00,21.8,16.9,30.31,East,96,5.0,-999.0,81,0.00,,,0.02,Wunderground v.1.15,2013-03-07 01:40:00,
2013-03-06 19:45:00,21.8,16.9,30.31,ESE,111,0.0,-999.0,81,0.00,,,0.02,Wunderground v.1.15,2013-03-07 01:45:00,
2013-03-06 19:50:00,21.9,17.0,30.31,ESE,111,1.0,-999.0,81,0.00,,,0.02,Wunderground v.1.15,2013-03-07 01:50:00,
2013-03-06 19:55:00,21.9,17.0,30.31,ESE,109,0.0,-999.0,81,0.00,,,0.02,Wunderground v.1.15,2013-03-07 01:55:00,
2013-03-06 20:01:00,21.9,17.0,30.31,East,86,0.0,-999.0,81,0.00,,,0.02,Wunderground v.1.15,2013-03-07 02:01:00,
2013-03-06 20:06:00,21.9,17.0,30.31,East,91,3.0,-999.0,81,0.00,,,0.02,Wunderground v.1.15,2013-03-07 02:06:00,
2013-03-06 20:11:00,21.9,17.0,30.31,East,101,3.0,-999.0,81,0.00,,,0.02,Wunderground v.1.15,2013-03-07 02:11:00,
2013-03-06 20:16:00,22.1,17.2,30.31,East,91,2.0,-999.0,81,0.00,,,0.02,Wunderground v.1.15,2013-03-07 02:16:00,
2013-03-06 20:21:00,22.1,17.2,30.31,SE,126,0.0,-999.0,81,0.00,,,0.02,Wunderground v.1.15,2013-03-07 02:21:00,
2013-03-06 20:26:00,22.1,17.2,30.31,SE,134,2.0,-999.0,81,0.00,,,0.02,Wunderground v.1.15,2013-03-07 02:26:00,
2013-03-06 20:31:00,22.1,17.2,30.30,ESE,119,0.0,-999.0,81,0.00,,,0.02,Wunderground v.1.15,2013-03-07 02:31:00,
2013-03-06 20:36:00,22.1,17.2,30.30,SE,128,3.0,-999.0,81,0.00,,,0.02,Wunderground v.1.15,2013-03-07 02:36:00,
2013-03-06 20:41:00,21.9,17.0,30.30,East,80,3.0,-999.0,81,0.00,,,0.02,Wunderground v.1.15,2013-03-07 02:41:00,
2013-03-06 20:46:00,21.9,17.0,30.30,ESE,110,2.0,-999.0,81,0.00,,,0.02,Wunderground v.1.15,2013-03-07 02:46:00,
2013-03-06 20:51:00,21.8,16.9,30.30,ESE,103,4.0,-999.0,81,0.00,,,0.02,Wunderground v.1.15,2013-03-07 02:51:00,
2013-03-06 20:56:00,21.6,16.7,30.30,ENE,70,2.0,-999.0,81,0.00,,,0.02,Wunderground v.1.15,2013-03-07 02:56:00,
2013-03-06 21:01:00,21.4,16.5,30.30,ESE,121,3.0,-999.0,81,0.00,,,0.02,Wunderground v.1.15,2013-03-07 03:01:00,
2013-03-06 21:06:00,21.4,16.5,30.30,East,96,1.0,-999.0,81,0.00,,,0.02,Wunderground v.1.15,2013-03-07 03:06:00,
2013-03-06 21:11:00,21.3,16.4,30.30,ESE,103,2.0,-999.0,81,0.00,,,0.02,Wunderground v.1.15,2013-03-07 03:11:00,
2013-03-06 21:16:00,21.1,16.2,30.30,SSE,159,2.0,-999.0,81,0.00,,,0.02,Wunderground v.1.15,2013-03-07 03:16:00,
2013-03-06 21:21:00,21.0,16.1,30.30,ESE,123,4.0,-999.0,81,0.00,,,0.02,Wunderground v.1.15,2013-03-07 03:21:00,
2013-03-06 21:26:00,20.8,15.9,30.30,ESE,115,3.0,-999.0,81,0.00,,,0.02,Wunderground v.1.15,2013-03-07 03:26:00,
2013-03-06 21:31:00,20.8,15.9,30.30,East,101,6.0,-999.0,81,0.00,,,0.02,Wunderground v.1.15,2013-03-07 03:31:00,
2013-03-06 21:36:00,20.8,16.2,30.30,ESE,120,5.0,-999.0,82,0.00,,,0.02,Wunderground v.1.15,2013-03-07 03:36:00,
2013-03-06 21:41:00,20.6,16.0,30.30,ESE,105,0.0,-999.0,82,0.00,,,0.02,Wunderground v.1.15,2013-03-07 03:41:00,
2013-03-06 21:46:00,20.6,16.0,30.31,ENE,63,1.0,-999.0,82,0.00,,,0.02,Wunderground v.1.15,2013-03-07 03:46:00,
2013-03-06 21:52:00,20.6,16.0,30.31,SE,128,5.0,-999.0,82,0.00,,,0.02,Wunderground v.1.15,2013-03-07 03:52:00,
2013-03-06 21:57:00,20.5,15.9,30.31,SSE,166,0.0,-999.0,82,0.00,,,0.02,Wunderground v.1.15,2013-03-07 03:57:00,
2013-03-06 22:02:00,20.5,15.9,30.32,ESE,108,1.0,-999.0,82,0.00,,,0.02,Wunderground v.1.15,2013-03-07 04:02:00,
2013-03-06 22:07:00,20.3,15.7,30.32,East,98,3.0,-999.0,82,0.00,,,0.02,Wunderground v.1.15,2013-03-07 04:07:00,
2013-03-06 22:12:00,20.3,15.7,30.32,SSE,148,3.0,-999.0,82,0.00,,,0.02,Wunderground v.1.15,2013-03-07 04:12:00,
2013-03-06 22:17:00,20.3,16.0,30.31,East,82,4.0,-999.0,83,0.00,,,0.02,Wunderground v.1.15,2013-03-07 04:17:00,
2013-03-06 22:22:00,20.3,16.0,30.31,East,98,3.0,-999.0,83,0.00,,,0.02,Wunderground v.1.15,2013-03-07 04:22:00,
2013-03-06 22:27:00,20.2,15.9,30.31,ESE,115,7.0,-999.0,83,0.00,,,0.02,Wunderground v.1.15,2013-03-07 04:27:00,
2013-03-06 22:32:00,20.2,15.9,30.31,South,177,2.0,-999.0,83,0.00,,,0.02,Wunderground v.1.15,2013-03-07 04:32:00,
2013-03-06 22:37:00,20.2,15.9,30.31,South,170,1.0,-999.0,83,0.00,,,0.02,Wunderground v.1.15,2013-03-07 04:37:00,
2013-03-06 22:42:00,20.0,15.7,30.31,SE,128,0.0,-999.0,83,0.00,,,0.02,Wunderground v.1.15,2013-03-07 04:42:00,
2013-03-06 22:47:00,19.9,15.6,30.31,ESE,115,0.0,-999.0,83,0.00,,,0.02,Wunderground v.1.15,2013-03-07 04:47:00,
2013-03-06 22:52:00,19.9,15.6,30.31,ESE,120,0.0,-999.0,83,0.00,,,0.02,Wunderground v.1.15,2013-03-07 04:52:00,
2013-03-06 22:57:00,19.9,15.8,30.31,ENE,71,5.0,-999.0,84,0.00,,,0.02,Wunderground v.1.15,2013-03-07 04:57:00,
2013-03-06 23:00:00,19.9,15.8,30.32,SE,141,3.0,-999.0,84,0.00,,,0.02,Wunderground v.1.15,2013-03-07 05:00:00,
2013-03-06 23:05:00,19.9,15.8,30.32,ESE,103,1.0,-999.0,84,0.00,,,0.02,Wunderground v.1.15,2013-03-07 05:05:00,
2013-03-06 23:11:00,19.9,15.8,30.32,SE,124,0.0,-999.0,84,0.00,,,0.02,Wunderground v.1.15,2013-03-07 05:11:00,
2013-03-06 23:16:00,19.9,15.8,30.32,SSE,150,2.0,-999.0,84,0.00,,,0.02,Wunderground v.1.15,2013-03-07 05:16:00,
2013-03-06 23:21:00,19.7,15.6,30.32,SSE,163,4.0,-999.0,84,0.00,,,0.02,Wunderground v.1.15,2013-03-07 05:21:00,
2013-03-06 23:26:00,19.7,15.6,30.32,ESE,107,0.0,-999.0,84,0.00,,,0.02,Wunderground v.1.15,2013-03-07 05:26:00,
2013-03-06 23:31:00,19.9,15.8,30.32,East,95,0.0,-999.0,84,0.00,,,0.02,Wunderground v.1.15,2013-03-07 05:31:00,
2013-03-06 23:33:00,19.9,15.8,30.32,ESE,105,7.0,-999.0,84,0.00,,,0.02,Wunderground v.1.15,2013-03-07 05:33:00,
2013-03-06 23:38:00,19.7,15.6,30.32,SE,124,0.0,-999.0,84,0.00,,,0.02,Wunderground v.1.15,2013-03-07 05:38:00,
2013-03-06 23:43:00,19.7,15.9,30.32,East,101,0.0,-999.0,85,0.00,,,0.02,Wunderground v.1.15,2013-03-07 05:43:00,
2013-03-06 23:49:00,19.7,15.9,30.32,SSE,157,1.0,-999.0,85,0.00,,,0.02,Wunderground v.1.15,2013-03-07 05:49:00,
2013-03-06 23:53:00,19.7,15.9,30.32,SE,136,2.0,-999.0,85,0.00,,,0.02,Wunderground v.1.15,2013-03-07 05:53:00,
2013-03-06 23:58:00,19.9,16.1,30.33,SSE,148,3.0,-999.0,85,0.00,,,0.02,Wunderground v.1.15,2013-03-07 05:58:00,